Markus Marin

Olheiro-Chefe - Flora
6 Jan 2028
Quinta-feira
Processo

Personalidade

Adaptabilidade (17) Ambição (17) Controvérsia (4) Lealdade (17) Pressão (13) Profissionalismo (8) Espírito Esportivo (11) Temperamento (6)

Perfil

Estilo de Treinamento Democrático
Licença Continental B
Determinação 7
Gestão de Pessoas 9
Motivação 8
Disciplina 10
Satisfação no Trabalho
100%
Fadiga
0%
Função Olheiro-Chefe
Salário 22.6K p/s
Contrato 14.03.2030

Desempenho

Comportamento Bom
Eficácia do Treinamento
29%
Desenvolvimento do Jogador
50%
Prevenção de Lesões
35%
Implementação Tática
30%

Eventos Recentes

Participou de uma reunião de recrutamento agora
Recomendou um alvo de transferência agora
Recomendou um alvo de transferência agora
Recomendou um alvo de transferência agora
Avaliou um jogador agora
Apresentou um dossiê à direção agora
Avaliou um jogador 7d atrás
Apresentou um dossiê à direção 7d atrás

Monitorando agora

131
Jogador Clube Status Habilidade Confiança Observado Última observação Último voto
Marko Meerits Paide Relatório pronto 90 / 72 65% 1 04.01.2028 -
Richard Figueroa Deportivo Lara Ativo 111 / 119 40% 1 04.01.2028 -
Brian Mansilla Akhmat Grozny Ativo 128 / 126 40% 1 04.01.2028 -
Agustín Gallo Tristán Suárez Negociando 107 / 118 40% 1 04.01.2028 -
Enzon Bernal FCI Tallinn Ativo 89 / 92 65% 1 01.01.2028 Aprovar
Chinedu Geoffrey Krylya Sovetov Ativo 123 / 122 40% 1 01.01.2028 -
Vladislav Sarveli Nizhniy Novgorod Ativo 110 / 115 40% 1 01.01.2028 -
Gianluca Pugliese Güemes Ativo 122 / 100 40% 1 01.01.2028 -
Yegor Kortsov Dinamo Brest Ativo 114 / 107 40% 2 31.12.2027 -
Martin Sekulić Ural Ativo 121 / 113 40% 1 31.12.2027 -
Luca Franco Arsenal Ativo 98 / 93 40% 1 31.12.2027 -
Gonzalo Mottes Chacarita Juniors Ativo 113 / 107 40% 6 30.12.2027 -
Santiago López García Banfield Ativo 111 / 99 40% 2 30.12.2027 -
Ignacio Saavedra Sochi Ativo 124 / 121 40% 1 30.12.2027 -
Francisco Maidana Gimnasia y Esgrima Ativo 116 / 98 40% 2 29.12.2027 -
Dante Álvarez San Martín SJ Ativo 101 / 104 40% 1 29.12.2027 -
Nicolás Fernández Maipú Ativo 100 / 126 40% 1 29.12.2027 -
Fernando Martínez Central Córdoba SdE Ativo 115 / 120 40% 2 28.12.2027 -
Yury Gorshkov Krylya Sovetov Ativo 123 / 113 40% 3 28.12.2027 -
Facundo Ardiles Estudiantes Ativo 113 / 92 40% 3 28.12.2027 -
Tomás Ferreyra Defensores Unidos Ativo 112 / 115 40% 2 27.12.2027 -
Agustín Benítez Defensores Ativo 125 / 119 40% 2 27.12.2027 -
Tomás Porra Barracas Central Ativo 115 / 124 40% 1 27.12.2027 -
Miloš Brnović Arsenal Tula Ativo 116 / 110 40% 5 26.12.2027 -
Mateo Mendoza Godoy Cruz Ativo 123 / 123 40% 3 26.12.2027 -
Delvin Alfonzo Deportivo Tachira Ativo 133 / 120 40% 1 26.12.2027 -
Fernando Costanza Krylya Sovetov Ativo 129 / 121 40% 1 24.12.2027 -
Fernando Bersano Madryn Ativo 119 / 98 40% 1 24.12.2027 -
Juan Camilo Mosquera Atletico Bucaramanga Ativo 116 / 107 40% 1 24.12.2027 -
Alejandro Molina Tristán Suárez Ativo 120 / 96 40% 2 23.12.2027 -
Matías Machado Racing Ativo 119 / 129 40% 1 23.12.2027 -
Martín García Atlanta Ativo 126 / 124 40% 3 21.12.2027 -
Gonzalo Abrego Godoy Cruz Ativo 113 / 129 40% 1 21.12.2027 -
Andrés Alarcón Dinamo Makhachkala Ativo 112 / 117 40% 4 20.12.2027 -
Kristijan Bistrović Akron Ativo 130 / 114 40% 4 19.12.2027 -
Temirkan Sundukov Dinamo Makhachkala Ativo 119 / 106 40% 1 19.12.2027 -
Facundo Nadalín San Martín SJ Ativo 103 / 112 40% 1 17.12.2027 -
Nikita Kakkoev Nizhniy Novgorod Ativo 123 / 114 40% 3 14.12.2027 -
Juan Salas Patronato Ativo 106 / 101 40% 1 14.12.2027 -
Andrés Álvarez Aguilas Doradas Ativo 104 / 102 40% 2 13.12.2027 -
Juan Luis Alfaro Banfield Ativo 119 / 99 40% 2 13.12.2027 -
Gonzalo Asis Almagro Ativo 123 / 121 40% 1 13.12.2027 -
Maxime Sivis Orenburg Ativo 117 / 124 40% 3 12.12.2027 -
Walter Juárez Güemes Ativo 111 / 130 40% 2 12.12.2027 -
Luis Olivera Defensores Unidos Ativo 112 / 110 40% 1 12.12.2027 -
Brian Calderara Chacarita Juniors Ativo 112 / 129 40% 2 11.12.2027 -
Srđan Babić Nizhniy Novgorod Ativo 124 / 125 40% 1 11.12.2027 -
Iván Tapia Barracas Central Ativo 116 / 129 40% 1 11.12.2027 -
Ousmane Ndong Akhmat Grozny Ativo 119 / 125 40% 4 08.12.2027 -
Abel Bustos Racing Ativo 109 / 118 40% 1 07.12.2027 -
Facundo Mater Barracas Central Ativo 108 / 119 40% 1 06.12.2027 -
Nicolás Paz San Martín SJ Ativo 134 / 144 40% 2 03.12.2027 -
Nikita Melnikov Slavia Mozyr Ativo 96 / 113 40% 1 02.12.2027 -
Julián Cosi Madryn Ativo 113 / 105 40% 2 30.11.2027 -
Vicente Poggi Godoy Cruz Ativo 129 / 128 40% 1 29.11.2027 -
Lorenzo Monti Temperley Ativo 113 / 106 40% 1 29.11.2027 -
Damián Adín San Miguel Ativo 106 / 131 40% 1 28.11.2027 -
Ian Pérez Defensores Ativo 118 / 87 40% 1 25.11.2027 -
José Mercado Union Magdalena Ativo 97 / 127 40% 1 21.11.2027 -
Franco Camargo Gimnasia y Esgrima Ativo 123 / 107 40% 1 21.11.2027 -
Franco Malagueño Colegiales Ativo 112 / 125 40% 1 20.11.2027 -
Nazareno Fernández Colombo Los Andes Ativo 91 / 117 40% 1 20.11.2027 -
Thomas Ortega Quilmes Ativo 116 / 129 40% 1 01.09.2027 -
Erik de los Santos Racing Ativo 123 / 124 40% 1 01.09.2027 -
Simone Auriletto Renate Ativo 100 / 86 40% 1 18.08.2027 -
Fabio Cariolato Arzignano Ativo 94 / 98 40% 1 18.08.2027 -
Mihai Gusu AlbinoLeffe Ativo 99 / 94 40% 1 18.08.2027 -
Federico Pace Latina Ativo 108 / 109 40% 1 17.08.2027 -
Federico Giraudo Casarano Ativo 120 / 92 40% 1 17.08.2027 -
Javohir Rasulov Narva Trans Ativo 84 / 87 65% 1 26.07.2027 Aprovar
Mattia Viti Sampdoria Ativo 133 / 159 40% 1 19.07.2027 -
Léo Schwechlen Ativo 88 / 84 65% 1 12.07.2027 Aprovar
Stefan Lončar Akron Ativo 115 / 107 40% 5 08.06.2027 -
Leo Goglichidze Rodina Ativo 122 / 119 40% 2 08.06.2027 -
Daniil Penchikov Arsenal Tula Ativo 94 / 101 40% 4 29.05.2027 -
Soslan Takulov Neftekhimik Ativo 100 / 109 40% 3 29.05.2027 -
Eldar Ćivić Baltika Ativo 117 / 109 40% 2 28.05.2027 -
Nathan Gassama Baltika Ativo 120 / 120 40% 4 26.05.2027 -
Bojan Roganović Torpedo Moscow Ativo 103 / 102 40% 5 26.05.2027 -
Léo Cordeiro Ural Ativo 106 / 119 40% 2 25.05.2027 -
Igor Konovalov Chernomorets Ativo 90 / 103 40% 6 24.05.2027 -
Houssem Mrezigue Dinamo Makhachkala Ativo 124 / 124 40% 3 24.05.2027 -
Ilja Vakhania Krasnodar Ativo 124 / 106 40% 6 23.05.2027 -
Ítalo Ural Ativo 103 / 101 40% 1 23.05.2027 -
Tomás Ribeiro Cultural Leonesa Ativo 111 / 133 40% 2 21.05.2027 -
Stefan Kovač Baltika Ativo 124 / 114 40% 1 16.05.2027 -
Artem Makarchuk Sochi Ativo 106 / 99 40% 4 11.05.2027 -
Alexandr Ivankov Torpedo Moscow Ativo 105 / 101 40% 2 09.05.2027 -
Nikita Pechenkin Sokol Ativo 103 / 93 40% 2 09.05.2027 -
Garrik Levin Chelyabinsk Ativo 102 / 99 40% 1 07.05.2027 -
Matheus Reis CSKA Moscow Ativo 123 / 135 40% 2 04.05.2027 -
David Shavlokhov SKA Khabarovsk Ativo 94 / 110 40% 1 02.05.2027 -
Giorgi Kantaria Neftekhimik Ativo 96 / 108 40% 1 27.04.2027 -
Jhon Palacios Orenburg Ativo 118 / 129 40% 3 26.04.2027 -
Andrea Chukanov Yenisey Ativo 99 / 93 40% 1 25.04.2027 -
David Kokoev Yenisey Ativo 95 / 96 40% 5 20.04.2027 -
Alexey Berdnikov Chelyabinsk Ativo 98 / 105 40% 1 17.04.2027 -
Vasily Cherov Ufa Ativo 105 / 102 40% 1 17.04.2027 -
Tigran Avanesyan Arsenal Tula Ativo 107 / 113 40% 1 16.04.2027 -
Islamzhan Nasyrov Ryazan Ativo 101 / 79 40% 2 15.04.2027 -
Saminu Abdullahi KAMAZ Ativo 98 / 113 40% 2 14.04.2027 -
Alexandr Soldatenkov Sochi Ativo 125 / 126 40% 1 13.04.2027 -
Oleg Lanin Shinnik Ativo 97 / 98 40% 1 10.04.2027 -
Fahd Moufi Baltika Ativo 119 / 129 40% 3 08.04.2027 -
Edgardo Fariña Nizhniy Novgorod Ativo 111 / 103 40% 6 07.04.2027 -
Robert Mejía Orenburg Ativo 116 / 106 40% 2 06.04.2027 -
Nader Mohammadi Spartak Kostroma Ativo 93 / 87 40% 3 06.04.2027 -
Vyacheslav Yakimov Fakel Ativo 101 / 120 40% 2 05.04.2027 -
Darko Todorović Fakel Ativo 116 / 105 40% 2 05.04.2027 -
Daniil Kornyushin Shinnik Ativo 94 / 109 40% 1 04.04.2027 -
Alexandr Ektov Nizhniy Novgorod Ativo 111 / 97 40% 1 04.04.2027 -
Kamil Ibragimov Volga Ativo 94 / 92 40% 1 03.04.2027 -
Ugochukwu Iwu Rubin Ativo 111 / 129 40% 2 31.03.2027 -
Pavel Maslov Chaika Ativo 112 / 92 40% 3 28.03.2027 -
Ilja Zhigulev Chernomorets Ativo 92 / 95 40% 2 24.03.2027 -
Dmitry Pestryakov Dinamo Moscow Ativo 118 / 115 40% 1 21.03.2027 -
Nikolay Tolstopyatov Neftekhimik Ativo 89 / 101 40% 1 06.03.2027 -
Ruslan Baitukov Chelyabinsk Ativo 105 / 85 40% 1 06.03.2027 -
Mingiyan Beveev Baltika Ativo 114 / 115 40% 1 04.03.2027 -
Vlasi Sappinen Sillamae Kalev Ativo 95 / 86 55% 1 25.01.2027 -
Ilja Agapov Ufa Ativo 107 / 101 40% 1 11.01.2027 -
Roman Zaschepkin KAMAZ Ativo 90 / 104 40% 1 10.01.2027 -
Josué Doké Narva Trans Ativo 83 / 80 55% 1 05.01.2027 Observar
Nikita Baranov Paide Ativo 85 / 79 55% 1 04.01.2027 -
Slobodan Tedić Akron Ativo 102 / 96 40% 1 01.01.2027 -
Artem Maximenko Nizhniy Novgorod Ativo 100 / 122 40% 1 31.12.2026 -
Ivan Yenin Spartak Kostroma Ativo 87 / 82 40% 1 18.11.2026 -
Kirill Kaplenko BATE Ativo 105 / 85 40% 1 31.08.2026 -
Sory Diarra Haugesund Ativo 119 / 102 40% 1 17.08.2026 -
Bubacarr Trawally Paide Ativo 113 / 95 51% 1 10.08.2026 -
Gustavo Del Prete San Lorenzo Ativo 130 / 99 40% 1 01.08.2026 -